Showing default

OPS 4682 (SNAPSHOT), 1314

Orbit data source: Space-Track

OPS 4682 (SNAPSHOT), 1314 is an American payload satellite in LEO that was launched on Sat, 03 Apr 1965 UTC via an ATLAS SLV-3 AGENA D launch vehicle from the Air Force Western Test Range (AFWTR). Payload-class satellites include a variety of spacecraft equipped with specific instruments for various scientific and technological missions. These include communications satellites like Starlink; space stations such as the ISS; scientific satellites like the Hubble; Earth observation satellites from companies like Planet Labs, Umbra, and HawkEye 360; GPS; miniature CubeSats for education and research; and military/defense satellites.

Loading next visibility...
Identifier
1314, 1965-027A
Orbit
LEO
Country
Flag of USUS
Related business
Manufacturer
RCA/East Windsor
Mission
Defense Technology
Bus & Motor
SNAP 10 REACTOR, Unknown motor
Mass
2,386 kg wet, 422 kg dry
Launch date (UTC)
1965-04-03 (60 years ago)
Launch vehicle
ATLAS SLV-3 AGENA D
Launch site
Air Force Western Test Range (AFWTR)
Object type
Payload
Rocket body
Debris
Shape & HBR
Cone + Cyl, Unknown HBR
Radar Cross Section
14.538 m², Large (>1 m²)

Expand to show TLE details & history
Last TLE update: 12 hours ago

TLE from 12 hours ago
0 OPS 4682 (SNAPSHOT)
1 01314U 65027A   25259.27557384  .00000042  00000-0  13139-3 0  9999
2 01314  90.2452   0.2672 0028616 285.9559  89.2294 12.91798224595666
Epoch: 2025-09-16T06:36Z
TLE epoch observation values (Epoch: 2025-09-16T06:36:49.579Z)
Latitude
15.49014°
Longitude
-94.4752°
Altitude
1,296.356 km
Speed
7.209 km/s
True Right ascension
00h 00m 47s
True Declination
15° 24' 29"
Sunlit
Object was in full shadow at epoch
Visualization orbit readout
Latitude
Unknown
Longitude
Unknown
Altitude
Unknown
Speed
Unknown
Apparent Right ascension
Unknown
Apparent Declination
Unknown
Sunlit
N/A
Visualization observer readout
Local Sidereal Time
11:28:39
Azimuth
Unknown
Elevation
Unknown
Doppler factor
Unknown
Orbital elements
Apogee altitude
1,313.478 km
Perigee altitude
1,269.583 km
Semi-major axis
7,669.668 km
Eccentricity
0.00286
Inclination
90.2452°
RAAN
0.2672°
Arg. of periapsis
285.9559°
True anomaly
89.5573°
Mean anomaly
89.2294°
Eccentric anomaly
89.39335°
Mean motion
3.23131 °/min
Orbital period
111.41 mins
BSTAR
0.00013139
Loading maneuver chart data...
Computing Atmospheric mass density...
Loading historical data...
Loading historical data...
Loading historical data...
Loading historical data...
Loading historical data...
Loading historical data...
Loading historical data...

Documentation

Showing up to 5 results
|